Regional Weather Roundup
Issued by NWS Wakefield, VA

Home | Current Version | Previous Version | Text Only | Print | Product List | Glossary Off
Versions: 1 2 3 4 5 6 7 8 9 10 11 12 13 14 15 16 17 18 19 20 21 22 23 24 25 26 27 28 29 30 31 32 33 34 35 36 37 38 39 40 41 42 43 44 45 46 47 48 49 50

000
ASUS41 KAKQ 020210
RWRAKQ

REGIONAL WEATHER ROUNDUP
NATIONAL WEATHER SERVICE WAKEFIELD VA
1000 PM EDT FRI AUG 01 2014

Note: "fair" indicates few or no clouds below 12,000 feet with no
significant weather and/or obstructions to visibility. * = Denotes
station may not report precipitation (e.g., rain,snow,etc.),
thunder or fog.

VAZ042-051-052>054-056-020300-
NORTHERN VIRGINIA

CITY           SKY/WX    TMP DP  RH WIND       PRES   REMARKS
WASH NATIONAL  CLOUDY    76  64  66 SE9       30.18R
DULLES         CLOUDY    70  61  73 E5        30.17R
FORT BELVOIR   CLOUDY    71  64  78 SE8       30.18R
QUANTICO       LGT RAIN  69  62  78 SE9       30.19R
FREDERICKSBRG* LGT RAIN  67  66  95 CALM      30.17R
STAFFORD*      LGT RAIN  66  66 100 E3        30.21S
WARRENTON      LGT RAIN  70  69  98 SE7G18    30.17R
CULPEPER*      LGT RAIN N/A N/A N/A S3        30.18R
MANASSAS*      PTCLDY    72  64  78 SE3       30.17R
LEESBURG*      CLOUDY    73  63  68 SE3       30.18S
WINCHESTER     CLOUDY    68  63  83 CALM      30.17S
$$

VAZ048-049-060>072-079>083-020300-
CENTRAL AND SOUTH CENTRAL VIRGINIA...AND NORTH CENTRAL NORTH CAROLINA

CITY           SKY/WX    TMP DP  RH WIND       PRES   REMARKS
RICHMOND       RAIN      67  63  87 E9        30.15R FOG
CHESTERFIELD*  CLOUDY   N/A N/A N/A E6        30.16S
HANOVER        RAIN      66  64  93 CALM      30.17R FOG
TAPPAHANNOCK*  RAIN      67  62  83 NE3       30.17R
CHARLOTTSVILLE LGT RAIN  68  65  90 SE8       30.17R
ORANGE*        DRIZZLE   66  61  82 CALM      30.19R
LOUISA*        DRIZZLE   64  63  94 E3        30.16S
FARMVILLE*     LGT RAIN  64  63  94 CALM      30.14S
SOUTH HILL*    RAIN      64  64 100 N7        30.17S
ROANOKE RAPIDS LGT RAIN  64  63  94 N7        30.10S
RALEIGH        DRIZZLE   65  62  90 NE8       30.12R
$$

VAZ088>098-020300-
SOUTHEAST VIRGINIA

CITY           SKY/WX    TMP DP  RH WIND       PRES   REMARKS
NORFOLK        LGT RAIN  70  67  90 E7        30.10F FOG
VIRGINIA BEACH LGT RAIN  72  70  93 E14       30.09S
NORFOLK NAVAL  LGT RAIN  70  67  90 NE12      30.13S FOG
WEST POINT*    CLOUDY    65  62  89 NE10      30.17S
NEWPORT NEWS   LGT RAIN  70  65  84 NE9       30.12F
LANGLEY AFB    LGT RAIN  68  68 100 NE8       30.12S FOG
FORT EUSTIS    CLOUDY    66  66 100 NE9       30.11S
WILLIAMSBURG*  CLOUDY    66  64  94 CALM      30.14S
FRANKLIN*      CLOUDY    66 N/A N/A NE6       30.10F
WAKEFIELD      LGT RAIN  65  63  93 VRB5      30.12S FOG
$$

VAZ020-022-025-037-045-020300-
WESTERN AND SOUTHWEST VIRGINIA

CITY           SKY/WX    TMP DP  RH WIND       PRES   REMARKS
STAUNTON*      CLOUDY    67  62  84 CALM      30.19S
HOT SPRINGS VA MOCLDY    56  52  85 E8        30.27R
LYNCHBURG      LGT RAIN  62  60  93 E3        30.19R
DANVILLE       CLOUDY    64  61  90 NE7       30.15S
MARTINSVILLE   DRIZZLE   66  65  96 E5        30.18R
ROANOKE        CLOUDY    64  62  93 N3        30.19R
BLACKSBURG     CLOUDY    63  61  94 E6        30.21R
DUBLIN*        CLOUDY    64  61  88 CALM      30.20R
MARION*        CLOUDY    64  55  74 E6        30.22S
HILLSVILLE*    CLOUDY    60  58  93 CALM      30.20R
RICHLANDS*     PTCLDY    66  57  73 SE6       30.17S
WISE*          CLEAR     64  55  72 CALM      30.18R
ABINGDON*      CLEAR     67  59  76 E9        30.16R
$$

MDZ021>025-VAZ099-100-020300-
SOUTHERN MARYLAND AND THE DELMARVA PENINSULA

CITY           SKY/WX    TMP DP  RH WIND       PRES   REMARKS
PATUXENT RIVER LGT RAIN  69  64  84 NE8       30.16R
BAY BRIDGE APT   N/A     72  64  78 E3        30.18R
LEONARDTOWN    CLOUDY    64  63  94 CALM      30.18S
DOVER          CLOUDY    70  66  88 SE2       30.16R
GEORGETOWN     LGT RAIN  71  68  90 E12       30.17S
EASTON         NOT AVBL
CAMBRIDGE      CLOUDY    70  64  83 CALM      30.17S
SALISBURY      LGT RAIN  73  68  83 NE5       30.15F
OCEAN CITY     CLOUDY    74  71  91 E6        30.15F
WALLOPS ISLAND LGT RAIN  71  64  78 SE12      30.14F
ACCOMACK*        N/A     68  61  77 E5        30.13R
$$

NCZ012>017-030>032-020300-
EASTERN NORTH CAROLINA

CITY           SKY/WX    TMP DP  RH WIND       PRES   REMARKS
ELIZABETH CITY LGT RAIN  74  72  93 SE6       30.10R
AHOSKIE*       CLOUDY    66  64  94 NE8       30.09S
EDENTON*       CLOUDY    73  72  96 SE8       30.08S
CURRITUCK*     DRIZZLE   74  71  90 CALM      30.11S
KILL DEVIL HLS CLOUDY    74  73  93 SE8       30.09S
MANTEO         NOT AVBL
CAPE HATTERAS  CLOUDY    76  73  91 SE16G25   30.09F
GOLDSBORO      CLOUDY    70  69  99 NE6       30.07R
WASHINGTON     CLOUDY    74  73  96 SE3       30.08R
GREENVILLE     CLOUDY    70  70 100 CALM      30.09R
NEW BERN       MOCLDY    76  72  87 SE7       30.09R
WILMINGTON     MOCLDY    77  73  87 CALM      30.07R
$$

VAZ048-020300-
ELSEWHERE

CITY           SKY/WX    TMP DP  RH WIND       PRES   REMARKS
HARRISBURG PA  CLOUDY    71  64  78 E9        30.18R
BALTIMORE      CLOUDY    73  64  73 E6        30.17R
ANNAPOLIS      CLOUDY    74  66  76 SE8       30.18R
ANDREWS AFB    DRIZZLE   70  64  83 SE8       30.19R
WILMINGTON DE  CLOUDY    72  69  90 E3        30.20R
PHILADELPHIA   MOCLDY    73  68  84 SE3       30.19R
WILDWOOD NJ*   CLOUDY    72  66  83 NE5       30.18F
ATLANTIC CITY  CLOUDY    70  68  93 E3        30.19R
HENDERSON NC   DRIZZLE   63  61  94 CALM      30.13R
GREENSBORO     CLOUDY    64  63  96 NE9       30.13R
ROCKY MOUNT    CLOUDY    67  66  97 NE7       30.09R
FAYETTEVILLE   CLOUDY    70  68  93 N8        30.07R
CHARLOTTE      CLOUDY    67  64  90 N7        30.12R
$$

VAZ100-020300-
MARINE

STATION/POSITION TIME  TEMP    WIND        PRES    WAVE   SWELL
                       AIR SEA DIR/SP/G            HT/PER HT/PER
                 (UTC) (F)     (DEG/KT/KT) (MB)    (FT/S) (FT/S)
44066 TX TWR #4  0200   75 75  120/  6/  8 1022.4R   3/ 7   2/ 7
CAPE MAY NJ      0200   71 76   80/  4/  6 1021.2F
LEWES DE         0200   72 72   80/  7/  8 1021.3R
15NM E FENWICK I 0200   76 75              1021.2F   3/ 7
OCEAN-CITY-INLET 0200   74 74  110/  5/  7 1020.7F
WACHAPREAGUE VA  0200   70 78   90/ 15/ 20 1020.1S
THOMAS POINT MD  0200   73 78  140/ 14/ 16 1022.4R
GOOSES REEF MD   0200   72     140/ 10/ 14 1022.3R
COVE POINT MD    0200   71      90/  9/ 11 1021.3F
SOLOMONS ISLAND  0200      79                N/A
BISHOPS HEAD MD  0200   72 77   50/  5/  6 1020.9R
PINEY POINT MD   0200          130/ 13/ 14   N/A
POTOMAC MD       0200   74     100/ 12/ 16 1020.2F
CAMBRIDGE MD     0200   71 78   50/  5/  6 1021.4S
LEWISETTA VA     0200   71 78  140/  8/ 10 1020.8F
RAPPAHANNOCK LGT 0200           50/  9/ 17 1021.2S
STINGRAY PT      0200   67      70/ 14/ 17 1021.8S
YORK RVR RNG VA  0200   68      50/ 17/ 20 1019.8R
YORKTOWN VA      0200   68 78   40/ 14/ 16 1020.0F
JAMESTOWN VA     0200   63      60/  4/  6   N/A
DOMINION TERM VA 0200   67      40/  6/ 10 1019.8S
KIPTOPEKE VA     0200      79   80/ 12/ 17   N/A
CHES BAY BRIDGE  0200   71 76   60/ 22/ 25 1018.7R
CAPE HENRY VA    0200   71      70/ 22/ 24 1018.2R
WILLOUBY STN VA  0200           60/ 15/ 17 1019.1R
S CRANEY ISL VA  0200           20/ 10/ 13 1019.6F
CAPE HENRY BUOY  0200      77                N/A     5/ 5
1ST LANDING BUOY 0200   72      70/ 19/ 25 1018.9R
CAPE CHARLES BUO 0200      74                N/A     5/ 5
OFFSHORE WE BUOY 0100      77                N/A     5/ 5
64NM E OF VA BCH 0200   77 78  130/ 17/ 19 1019.3R   4/ 5   2/ 7
DUCK PIER NC     0200   76 76  140/ 18/ 21 1018.3R
44056 DUCK FRF   0200                        N/A     4/ 5
OREGON INLET NC  0200   75 78  120/  9/ 13 1019.0F
HATTERAS NC      0200   76 79  130/ 11/ 16 1019.1F
DIAMOND SHLS NC  0200          VRB 16/ 17  1018.7F   4/ 6   2/ 9
CAPE LOOKOUT NC  0100   78     120/ 17/ 18 1017.9R
$$


USA.gov is the U.S. government's official web portal to all federal, state and local government web resources and services.